www.pogodaiklimat.ru

Погода и климат >> Архив погоды >> Россия >> Ярославская область >> Владычное


ПОГОДА в Владычном

  • Прогноз погоды в Владычном
  • Монитор погоды в Владычном

АРХИВ ПОГОДЫ в Владычном

Время (UTC), дата Ветер
(напр.,м/с)
 
Видим.   Явления Облачность Т
(С)
Тd
(С)
f
(%)
Тe
(С)
Тes
(С)
Комфортность P
(гПа)
Po
(гПа)
Тmin
(С)
Tmax
(С)
R
(мм)
R24
(мм)
S
(см)
03 13.08 В 1 н/о н/о +8.8 +7.7 93 +8 +8 1017.3 1000.1 +6.1
06 13.08 ЮВ 2 н/о н/о +13.6 +9.7 77 +13 +13 1015.7 998.8 +6.1
09 13.08 Ю 4 н/о н/о +17.9 +12.7 72 +18 +18 1014.2 997.7
12 13.08 Ю 3 н/о н/о +19.2 +14.7 75 +21 +21 комфорт 1013.2 996.7
15 13.08 Ю 1 н/о н/о +17.1 +16.5 96 +18 +18 1012.1 995.5 +20.0 0.7
18 13.08 ЮВ 2 н/о н/о +15.9 +15.7 99 +16 +16 1010.9 994.3
21 13.08 В 1 н/о н/о +14.8 +14.5 98 +15 +15 1008.9 992.3
00 14.08 ЮВ 2 н/о н/о +14.9 +14.7 99 +15 +15 1006.4 989.9
03 14.08 З 1 н/о н/о +14.7 +14.7 100 +15 +15 1006.7 990.1 +14.7 25
06 14.08 СЗ 2 н/о н/о +16.0 +15.7 98 +16 +16 1008.3 991.7 +14.7
09 14.08 СЗ 2 н/о н/о +16.4 +15.5 94 +16 +16 1010.1 993.5
12 14.08 З 1 н/о н/о +18.2 +15.8 86 +20 +20 1011.6 995.1
15 14.08 ЮЗ 2 н/о н/о +18.2 +15.0 82 +19 +19 1012.0 995.5 +19.3 0.2
18 14.08 ЮВ 1 н/о н/о +14.7 +14.2 97 +15 +15 1012.4 995.7
21 14.08 В 1 н/о н/о +12.5 +12.2 98 +12 +12 1012.4 995.6
00 15.08 В 1 н/о н/о +12.1 +12.1 100 +12 +12 1010.9 994.0
03 15.08 В 2 н/о н/о +13.8 +13.8 100 +13 +13 1009.0 992.3 +11.8 6
06 15.08 ЮВ 3 н/о н/о +14.9 +14.7 99 +14 +14 1005.6 989.1 +11.8
12 15.08 З 6 н/о н/о +17.4 +16.0 91 +17 +17 1006.8 990.4
15 15.08 З 3 н/о н/о +17.1 +13.8 81 +17 +17 1010.5 994.0
18 15.08 З 1
{12}
н/о н/о +12.6 +11.7 94 +13 +13 1012.8 996.0
21 15.08 Ю 1 н/о н/о +10.6 +10.4 99 +10 +10 1014.2 997.2
00 16.08 ЮВ 1 н/о н/о +7.6 +7.4 99 +7 +7 1015.4 998.1
03 16.08 штиль 0 н/о н/о +7.0 +7.0 100 +6 +6 1016.1 998.9 +6.1
06 16.08 ЮЗ 1 н/о н/о +13.6 +12.8 95 +14 +14 1016.2 999.4 +6.1
09 16.08 ЮЗ 2 н/о н/о +18.9 +13.0 69 +20 +20 1015.3 998.8
12 16.08 С 1 н/о н/о +20.3 +11.2 56 +23 +23 комфорт 1015.1 998.7
15 16.08 штиль 0 н/о н/о +19.8 +12.5 63 +21 +21 комфорт 1015.2 998.7 +20.8
18 16.08 штиль 0 н/о н/о +13.0 +12.2 95 +12 +12 1016.4 999.5
21 16.08 штиль 0 н/о н/о +9.6 +9.4 99 +9 +9 1017.4 1000.3
00 17.08 штиль 0 н/о н/о +7.2 +7.0 99 +6 +6 1018.2 1000.9
06 17.08 В 2 н/о н/о +18.0 +13.2 74 +19 +19 1018.5 1001.9 +6.0
09 17.08 СВ 4 н/о н/о +20.2 +10.4 53 +22 +22 комфорт 1018.5 1002.0
12 17.08 СВ 4 н/о н/о +20.8 +10.2 51 +23 +23 комфорт 1017.7 1001.2
18 17.08 СВ 2 н/о н/о +14.4 +10.7 78 +14 +14 1017.6 1000.8
21 17.08 СВ 2 н/о н/о +13.4 +10.4 82 +13 +13 1017.0 1000.1
00 18.08 СВ 3 н/о н/о +13.3 +10.4 83 +12 +12 1016.1 999.3
03 18.08 СВ 4 н/о н/о +13.0 +10.7 86 +11 +11 1015.4 998.5 +12.7
06 18.08 СВ 3 н/о н/о +14.3 +12.0 86 +13 +13 1014.5 997.7 +12.7
09 18.08 В 4 н/о н/о +14.9 +14.2 96 +14 +14 1014.0 997.2
12 18.08 СВ 4 н/о н/о +15.1 +14.7 97 +14 +14 1013.6 996.9
15 18.08 В 3 н/о н/о +15.5 +15.0 97 +15 +15 1013.4 996.8 +15.6 3
18 18.08 В 3 н/о н/о +15.4 +15.2 99 +15 +15 1013.2 996.5
21 18.08 В 2 н/о н/о +16.1 +16.0 99 +16 +16 1013.1 996.5
00 19.08 В 2 н/о н/о +16.2 +16.2 100 +16 +16 1013.4 996.8
03 19.08 штиль 0 н/о н/о +16.0 +16.0 100 +16 +16 1013.5 996.8 +15.3 0.7
06 19.08 ЮВ 1 н/о н/о +16.8 +16.8 100 +18 +18 1013.9 997.3 +15.5
09 19.08 штиль 0 н/о н/о +19.5 +17.4 88 +22 +22 комфорт 1014.1 997.7
12 19.08 штиль 0 н/о н/о +21.4 +17.5 78 +25 +25 комфорт 1014.8 998.5
15 19.08 ЮЗ 2 н/о н/о +21.8 +16.7 73 +26 +26 душно 1015.6 999.2 +23.1
18 19.08 штиль 0 н/о н/о +15.7 +15.0 96 +15 +15 1017.3 1000.6

 

Местоположение метеостанции Владычное (Ярославская область, Россия): широта 58.81 долгота 39.48 высота над уровнем моря 142 м.

В архиве по умолчанию представлена погода в Владычном за последнюю неделю. Архивные данные за месяц целиком и за предыдущие месяцы, начиная с января 2011 года, Вы можете получить, выбрав интересующий диапазон дат из раскрывающегося списка и нажав кнопку "Ввод!".


*Определитесь, кто Вы:
робот инопланетянин человек

Внимание! Время в таблицах - всемирное. Для получения местного времени необходимо прибавить поправку, которая равна 3 ч.

Смотрите также архив погоды в соседних городах и на ближайших метеорологических станциях:

Погода в Пошехонье (Ярославская область, Россия) (42 км)
Погода в Вологде (Вологодская область, Россия) (62 км)
Погода в Данилове (Ярославская область, Россия) (79 км)
Погода в Рыбинске (Ярославская область, Россия) (92 км)
Погода в Коробово (Вологодская область, Россия) (92 км)
Погода в Череповце (Вологодская область, Россия) (99 км)
Погода в Тутаеве (Ярославская область, Россия) (101 км)
Погода в Брейтово (Ярославская область, Россия) (110 км)
Погода в Борке (Ярославская область, Россия) (111 км)
Погода в Буе (Костромская область, Россия) (124 км)

Пояснения к столбцам:

Ветер - указаны скорость ветра в м/с - средняя за 10 мин, порывы в срок и между сроками (в фигурных скобках) и направление, откуда дует ветер: С - северный, СВ - северо-восточный, В - восточный, ЮВ - юго-восточный, Ю - южный, ЮЗ - юго-западный, З - западный, СЗ - северо-западный.
Видимость - горизонтальная дальность видимости в метрах или километрах. При видимости от 1 до 10 км при отсутствии осадков обычно наблюдается дымка, при ухудшении видимости до 1 км и менее - туман. В сухую погоду видимость может ухудшаться дымом, пылью или мглою.
Явления - указаны атмосферные явления, наблюдавшиеся в срок или в последний час перед сроком; фигурными скобками обозначены явления, наблюдавшиеся между сроками (за 1-3 часа до срока); квадратными скобками обозначены град или гололедные отложения с указанием их диаметра в мм.
Облачность - указаны через наклонную черту общая и нижняя облачность в баллах и высота нижней границы облаков в метрах; квадратными скобками обозначены формы облаков: Ci - перистые, Cs - перисто-слоистые, Cc - перисто-кучевые, Ac - высококучевые, As - высокослоистые, Sc - слоисто-кучевые, Ns - слоисто-дождевые, Cu - кучевые, Cb - кучево-дождевые. Подробнее классификацию облаков см. в Атласе облаков (PDF).
T - Температура воздуха - температура, измеренная на высоте 2 м над землей.
Td - Температура точки росы - температура, при понижении до которой содержащийся в воздухе водяной пар достигнет насыщения.
f - Относительная влажность воздуха - влажноcть воздуха, измеренная на высоте 2 м над землей.
Te - Эффективная температура - температура, которую ощущает одетый по сезону человек в тени. Характеристика душности погоды. При расчете учитывается влияние влажности воздуха и скорости ветра на теплоощущения человека.
Tes - Эффективная температура на солнце - температура, которую ощущает человек, с поправкой на солнечный нагрев. Характеристика знойности погоды. Зависит от высоты солнца над горизонтом, облачности и скорости ветра. Ночью, в пасмурную погоду, а также при ветре 12 м/с и более поправка равна нулю.
P - Атмосферное давление - приведенное к уровню моря атмосферное давление.
Po - Атмосферное давление - измеренное на уровне метеостанции атмосферное давление.
Tmin - Минимальная температура - минимум температуры воздуха на высоте 2 м над землей.
Tmax - Максимальная температура - максимум температуры воздуха на высоте 2 м над землей.
R - Количество осадков - Количество выпавших осадков за период времени, мм. При наведении курсора мыши на число - период времени, за который выпало указанное количество осадков.
R24 - Количество осадков - Количество выпавших осадков за 24 часа, мм.
S - Снежный покров - Высота снежного покрова, см. При наведении курсора мыши на число - состояние снежного покрова и степень покрытия местности в баллах.